Location: Gloden
(48.4833°N, 15.3167°E)
Time: 13:30:42
(UTC+00:00)

Cosmos 1634 Rocket - Pass Details

Date: 15 December 2019
Orbit: 960 x 991 km, 82.9° (Epoch: 28 January)

Event Time Altitude Azimuth Distance (km) Brightness Sun altitude
Rises 03:18:53 0° 173° (S) 3,648 7.1 -32.7°
Reaches altitude 10° 03:21:26 10° 169° (S) 2,701 6.4 -32.3°
Maximum altitude 03:27:27 57° 92° (E) 1,128 4.5 -31.3°
Drops below altitude 10° 03:33:28 10° 16° (NNE) 2,707 6.5 -30.3°
Sets 03:36:01 0° 13° (NNE) 3,657 7.1 -29.8°
